| time (UTC) | temp F | wind direction | speed MPH | gust MPH | rain 1hr in | rain 24hr in | rain mn in | humidity % | barometer mb |
| 20260906053017 | 62 | 0.0 | 0.0 | 0.00 | 0.00 | 0.00 | 93 | 1012.1 | |
| 20260906052017 | 62 | 0.0 | 0.0 | 0.00 | 0.00 | 0.00 | 93 | 1012.0 | |
| 20260906051017 | 63 | 0.0 | 0.0 | 0.00 | 0.00 | 0.00 | 93 | 1012.1 | |
| 20260906050017 | 63 | 0.0 | 0.0 | 0.00 | 0.00 | 0.00 | 93 | 1012.2 | |
| 20260906045017 | 63 | 0.0 | 0.0 | 0.00 | 0.00 | 0.00 | 92 | 1012.2 | |
| 20260906044017 | 63 | 0.0 | 0.0 | 0.00 | 0.00 | 0.00 | 92 | 1012.2 | |
| 20260906043017 | 63 | 0.0 | 0.0 | 0.00 | 0.00 | 0.00 | 92 | 1012.2 | |
| 20260906042017 | 63 | 0.0 | 0.0 | 0.00 | 0.00 | 0.00 | 92 | 1012.3 | |
| 20260906041017 | 64 | 0.0 | 0.0 | 0.00 | 0.00 | 0.00 | 92 | 1012.2 | |
| 20260906040037 | 64 | 0.0 | 0.0 | 0.00 | 0.00 | 0.00 | 91 | 1012.2 | |
| 20260906035015 | 64 | 0.0 | 0.0 | 0.00 | 0.00 | 0.00 | 91 | 1012.3 | |
| 20260906034016 | 64 | 0.0 | 0.0 | 0.00 | 0.00 | 0.00 | 91 | 1012.2 | |
| 20260906033016 | 64 | 0.0 | 0.0 | 0.00 | 0.00 | 0.00 | 91 | 1012.3 | |
| 20260906032056 | 65 | 0.0 | 0.0 | 0.00 | 0.00 | 0.00 | 90 | 1012.2 | |
| 20260906031016 | 65 | 0.0 | 0.0 | 0.00 | 0.00 | 0.00 | 90 | 1012.0 | |
| 20260906030015 | 65 | 0.0 | 0.0 | 0.00 | 0.00 | 0.00 | 90 | 1011.8 | |
| 20260906025015 | 65 | 0.0 | 0.0 | 0.00 | 0.00 | 0.00 | 90 | 1012.0 | |
| 20260906024015 | 66 | 0.0 | 0.0 | 0.00 | 0.00 | 0.00 | 90 | 1011.8 | |
| 20260906023035 | 66 | 0.0 | 0.0 | 0.00 | 0.00 | 0.00 | 90 | 1011.9 | |
| 20260906022017 | 66 | 0.0 | 0.0 | 0.00 | 0.00 | 0.00 | 90 | 1011.9 | |
| 20260906021018 | 66 | 0.0 | 0.0 | 0.00 | 0.00 | 0.00 | 90 | 1011.9 | |
| 20260906020017 | 67 | 0.0 | 0.0 | 0.00 | 0.00 | 0.00 | 89 | 1011.9 | |
| 20260906015017 | 67 | 0.0 | 0.0 | 0.00 | 0.00 | 0.00 | 89 | 1011.8 | |
| 20260906014017 | 67 | 0.0 | 0.0 | 0.00 | 0.00 | 0.00 | 88 | 1011.7 | |
| 20260906013057 | 67 | 0.0 | 0.0 | 0.00 | 0.00 | 0.00 | 87 | 1011.8 | |
| 20260906012017 | 68 | 0.0 | 0.0 | 0.00 | 0.00 | 0.00 | 87 | 1011.6 | |
| 20260906011018 | 68 | 0.0 | 0.0 | 0.00 | 0.00 | 0.00 | 86 | 1011.4 | |
| 20260906010017 | 68 | 0.0 | 2.0 | 0.00 | 0.00 | 0.00 | 85 | 1011.4 | |
| 20260906005017 | 69 | 0.0 | 0.0 | 0.00 | 0.00 | 0.00 | 83 | 1011.4 | |
| 20260906004017 | 69 | 0.0 | 1.0 | 0.00 | 0.00 | 0.00 | 83 | 1011.3 | |
| 20260906003017 | 70 | 0.0 | 0.0 | 0.00 | 0.00 | 0.00 | 82 | 1011.3 | |
| 20260906002017 | 71 | 0.0 | 0.0 | 0.00 | 0.00 | 0.00 | 81 | 1011.1 | |
| 20260906001037 | 72 | 0.0 | 0.0 | 0.00 | 0.00 | 0.00 | 79 | 1011.1 | |
| 20260906000017 | 73 | 0.0 | 0.0 | 0.00 | 0.00 | 0.00 | 77 | 1010.9 | |
| 20260905235017 | 74 | 0.0 | 0.0 | 0.00 | 0.00 | 0.00 | 76 | 1010.9 | |
| 20260905234018 | 75 | 293 | 1.0 | 2.0 | 0.00 | 0.00 | 0.00 | 76 | 1010.6 |
| 20260905233017 | 75 | 0.0 | 1.0 | 0.00 | 0.00 | 0.00 | 74 | 1010.5 | |
| 20260905232017 | 77 | 0.0 | 0.0 | 0.00 | 0.00 | 0.00 | 72 | 1010.5 | |
| 20260905231017 | 78 | 0.0 | 1.0 | 0.00 | 0.00 | 0.00 | 71 | 1010.6 | |
| 20260905230017 | 79 | 0.0 | 1.0 | 0.00 | 0.00 | 0.00 | 66 | 1010.6 | |
| 20260905225037 | 80 | 0.0 | 1.0 | 0.00 | 0.00 | 0.00 | 61 | 1010.6 | |
| 20260905224037 | 81 | 0.0 | 2.0 | 0.00 | 0.00 | 0.00 | 58 | 1010.4 | |
| 20260905223037 | 82 | 0.0 | 2.0 | 0.00 | 0.00 | 0.00 | 56 | 1010.4 | |
| 20260905222017 | 82 | 293 | 1.0 | 3.0 | 0.00 | 0.00 | 0.00 | 55 | 1010.4 |
| 20260905221017 | 81 | 293 | 1.0 | 2.0 | 0.00 | 0.00 | 0.00 | 55 | 1010.2 |
| 20260905220017 | 81 | 0.0 | 2.0 | 0.00 | 0.00 | 0.00 | 57 | 1010.2 | |
| 20260905215017 | 81 | 23 | 2.0 | 7.0 | 0.00 | 0.00 | 0.00 | 55 | 1010.3 |
| 20260905214037 | 82 | 23 | 2.0 | 8.0 | 0.00 | 0.00 | 0.00 | 53 | 1010.1 |
| 20260905213017 | 82 | 23 | 3.0 | 8.0 | 0.00 | 0.00 | 0.00 | 54 | 1010.1 |
| 20260905212017 | 83 | 23 | 2.0 | 5.0 | 0.00 | 0.00 | 0.00 | 54 | 1010.1 |
| 20260905211058 | 83 | 0 | 2.0 | 7.0 | 0.00 | 0.00 | 0.00 | 57 | 1010.0 |
| 20260905210037 | 83 | 68 | 2.0 | 5.0 | 0.00 | 0.00 | 0.00 | 57 | 1010.0 |
| 20260905205016 | 83 | 45 | 2.0 | 5.0 | 0.00 | 0.00 | 0.00 | 57 | 1009.9 |
| 20260905204037 | 82 | 315 | 3.0 | 8.0 | 0.00 | 0.00 | 0.00 | 58 | 1009.9 |
| 20260905203017 | 82 | 45 | 2.0 | 7.0 | 0.00 | 0.00 | 0.00 | 58 | 1009.9 |
| 20260905202017 | 82 | 315 | 1.0 | 3.0 | 0.00 | 0.00 | 0.00 | 61 | 1010.0 |
| 20260905201017 | 81 | 45 | 3.0 | 7.0 | 0.00 | 0.00 | 0.00 | 59 | 1010.0 |
| 20260905200016 | 80 | 113 | 1.0 | 5.0 | 0.00 | 0.00 | 0.00 | 59 | 1010.2 |
| 20260905195057 | 82 | 338 | 2.0 | 5.0 | 0.00 | 0.00 | 0.00 | 58 | 1010.4 |
| 20260905194017 | 82 | 23 | 2.0 | 4.0 | 0.00 | 0.00 | 0.00 | 59 | 1010.4 |
| 20260905193016 | 81 | 338 | 2.0 | 6.0 | 0.00 | 0.00 | 0.00 | 64 | 1010.4 |
| 20260905192016 | 80 | 23 | 2.0 | 7.0 | 0.00 | 0.00 | 0.00 | 60 | 1010.5 |
| 20260905191017 | 81 | 23 | 2.0 | 10.0 | 0.00 | 0.00 | 0.00 | 58 | 1010.7 |
| 20260905190016 | 81 | 0 | 1.0 | 3.0 | 0.00 | 0.00 | 0.00 | 66 | 1010.6 |
| 20260905185016 | 80 | 90 | 2.0 | 4.0 | 0.00 | 0.00 | 0.00 | 63 | 1010.6 |
| 20260905184016 | 80 | 68 | 2.0 | 7.0 | 0.00 | 0.00 | 0.00 | 62 | 1010.7 |
| 20260905183017 | 81 | 293 | 2.0 | 5.0 | 0.00 | 0.00 | 0.00 | 63 | 1010.7 |
| 20260905182036 | 81 | 45 | 2.0 | 6.0 | 0.00 | 0.00 | 0.00 | 61 | 1010.8 |
| 20260905181016 | 81 | 293 | 3.0 | 6.0 | 0.00 | 0.00 | 0.00 | 66 | 1011.0 |
| 20260905180016 | 82 | 293 | 2.0 | 6.0 | 0.00 | 0.00 | 0.00 | 65 | 1011.2 |
| 20260905175036 | 82 | 293 | 4.0 | 12.0 | 0.00 | 0.00 | 0.00 | 62 | 1011.1 |
| 20260905174017 | 82 | 293 | 2.0 | 5.0 | 0.00 | 0.00 | 0.00 | 63 | 1011.3 |
| 20260905173017 | 81 | 90 | 3.0 | 7.0 | 0.00 | 0.00 | 0.00 | 65 | 1011.1 |
| 20260905172016 | 81 | 293 | 2.0 | 6.0 | 0.00 | 0.00 | 0.00 | 62 | 1011.2 |
| 20260905171036 | 81 | 293 | 2.0 | 5.0 | 0.00 | 0.00 | 0.00 | 67 | 1011.2 |
| 20260905170016 | 81 | 45 | 2.0 | 4.0 | 0.00 | 0.00 | 0.00 | 66 | 1011.1 |
| 20260905165016 | 80 | 293 | 3.0 | 7.0 | 0.00 | 0.00 | 0.00 | 65 | 1011.3 |
| 20260905164016 | 80 | 90 | 2.0 | 9.0 | 0.00 | 0.00 | 0.00 | 63 | 1011.3 |
| 20260905163017 | 79 | 45 | 2.0 | 8.0 | 0.00 | 0.00 | 0.00 | 70 | 1011.4 |
| 20260905162016 | 79 | 293 | 4.0 | 8.0 | 0.00 | 0.00 | 0.00 | 69 | 1011.4 |
| 20260905161036 | 79 | 90 | 2.0 | 8.0 | 0.00 | 0.00 | 0.00 | 69 | 1011.5 |
| 20260905160016 | 79 | 23 | 2.0 | 4.0 | 0.00 | 0.00 | 0.00 | 68 | 1011.6 |
| 20260905155036 | 78 | 113 | 2.0 | 6.0 | 0.00 | 0.00 | 0.00 | 70 | 1011.6 |
| 20260905154016 | 78 | 203 | 1.0 | 5.0 | 0.00 | 0.00 | 0.00 | 73 | 1011.5 |
| 20260905153036 | 77 | 23 | 1.0 | 3.0 | 0.00 | 0.00 | 0.00 | 77 | 1011.6 |
| 20260905152016 | 76 | 113 | 1.0 | 4.0 | 0.00 | 0.00 | 0.00 | 77 | 1011.7 |
| 20260905151037 | 77 | 23 | 2.0 | 5.0 | 0.00 | 0.00 | 0.00 | 75 | 1011.7 |
| 20260905150016 | 76 | 45 | 1.0 | 4.0 | 0.00 | 0.00 | 0.00 | 78 | 1011.6 |
| 20260905145036 | 76 | 23 | 1.0 | 4.0 | 0.00 | 0.00 | 0.00 | 76 | 1011.5 |
| 20260905144016 | 76 | 45 | 1.0 | 3.0 | 0.00 | 0.00 | 0.00 | 78 | 1011.4 |
| 20260905143016 | 75 | 293 | 2.0 | 4.0 | 0.00 | 0.00 | 0.00 | 79 | 1011.6 |
| 20260905142016 | 75 | 23 | 1.0 | 4.0 | 0.00 | 0.00 | 0.00 | 79 | 1011.6 |
| 20260905141016 | 74 | 45 | 1.0 | 4.0 | 0.00 | 0.00 | 0.00 | 80 | 1011.5 |
| 20260905140016 | 74 | 45 | 1.0 | 3.0 | 0.00 | 0.00 | 0.00 | 80 | 1011.4 |
| 20260905135017 | 74 | 0.0 | 2.0 | 0.00 | 0.00 | 0.00 | 80 | 1011.4 | |
| 20260905134016 | 74 | 45 | 1.0 | 3.0 | 0.00 | 0.00 | 0.00 | 80 | 1011.2 |
| 20260905133016 | 73 | 45 | 1.0 | 3.0 | 0.00 | 0.00 | 0.00 | 80 | 1011.3 |
| 20260905132036 | 73 | 0.0 | 1.0 | 0.00 | 0.00 | 0.00 | 82 | 1011.1 | |
| 20260905131016 | 73 | 23 | 1.0 | 4.0 | 0.00 | 0.00 | 0.00 | 81 | 1011.0 |
| 20260905130016 | 73 | 90 | 1.0 | 3.0 | 0.00 | 0.00 | 0.00 | 84 | 1011.0 |
| 20260905125036 | 73 | 68 | 1.0 | 4.0 | 0.00 | 0.00 | 0.00 | 85 | 1011.1 |
| 20260905124016 | 73 | 23 | 1.0 | 3.0 | 0.00 | 0.00 | 0.00 | 87 | 1011.2 |
| 20260905123016 | 73 | 0.0 | 2.0 | 0.00 | 0.00 | 0.00 | 87 | 1011.2 | |
| 20260905122016 | 72 | 0.0 | 0.0 | 0.00 | 0.00 | 0.00 | 87 | 1011.2 | |
| 20260905121016 | 72 | 0.0 | 2.0 | 0.00 | 0.00 | 0.00 | 86 | 1011.3 | |
| 20260905120016 | 72 | 0 | 1.0 | 2.0 | 0.00 | 0.00 | 0.00 | 86 | 1011.3 |
| 20260905115015 | 72 | 0.0 | 1.0 | 0.00 | 0.00 | 0.00 | 85 | 1011.1 | |
| 20260905114016 | 72 | 0.0 | 2.0 | 0.00 | 0.00 | 0.00 | 85 | 1010.9 | |
| 20260905113016 | 72 | 45 | 1.0 | 2.0 | 0.00 | 0.00 | 0.00 | 85 | 1010.8 |
| 20260905112016 | 72 | 0.0 | 0.0 | 0.00 | 0.00 | 0.00 | 85 | 1010.7 | |
| 20260905111016 | 72 | 0.0 | 1.0 | 0.00 | 0.00 | 0.00 | 85 | 1010.6 | |
| 20260905110016 | 72 | 0.0 | 0.0 | 0.00 | 0.00 | 0.00 | 85 | 1010.7 | |
| 20260905105015 | 71 | 0.0 | 1.0 | 0.00 | 0.00 | 0.00 | 85 | 1010.5 | |
| 20260905104015 | 71 | 0.0 | 1.0 | 0.00 | 0.00 | 0.00 | 86 | 1010.4 | |
| 20260905103015 | 72 | 0.0 | 2.0 | 0.00 | 0.00 | 0.00 | 87 | 1010.1 | |
| 20260905102015 | 72 | 0.0 | 1.0 | 0.00 | 0.00 | 0.00 | 88 | 1010.1 | |
| 20260905101015 | 72 | 0.0 | 2.0 | 0.00 | 0.00 | 0.00 | 90 | 1010.0 | |
| 20260905100038 | 72 | 0.0 | 0.0 | 0.00 | 0.00 | 0.00 | 91 | 1010.1 | |
| 20260905095017 | 72 | 0.0 | 1.0 | 0.00 | 0.00 | 0.00 | 91 | 1010.1 | |
| 20260905094037 | 72 | 0.0 | 1.0 | 0.00 | 0.00 | 0.00 | 91 | 1010.0 | |
| 20260905093017 | 72 | 0.0 | 3.0 | 0.00 | 0.00 | 0.00 | 92 | 1010.0 | |
| 20260905092018 | 72 | 0.0 | 4.0 | 0.00 | 0.00 | 0.00 | 93 | 1010.1 | |
| 20260905091017 | 72 | 0.0 | 2.0 | 0.00 | 0.00 | 0.00 | 93 | 1010.1 | |
| 20260905090058 | 72 | 90 | 1.0 | 2.0 | 0.00 | 0.00 | 0.00 | 94 | 1010.1 |
| 20260905085017 | 72 | 0.0 | 0.0 | 0.00 | 0.00 | 0.00 | 94 | 1010.1 | |
| 20260905084017 | 72 | 0.0 | 1.0 | 0.00 | 0.00 | 0.00 | 94 | 1010.0 | |
| 20260905083017 | 72 | 0.0 | 0.0 | 0.00 | 0.00 | 0.00 | 94 | 1009.9 | |
| 20260905082017 | 72 | 0.0 | 0.0 | 0.00 | 0.00 | 0.00 | 93 | 1009.9 | |
| 20260905081018 | 72 | 0.0 | 0.0 | 0.00 | 0.00 | 0.00 | 93 | 1010.0 | |
| 20260905080017 | 72 | 0.0 | 0.0 | 0.00 | 0.00 | 0.00 | 93 | 1010.1 | |
| 20260905075017 | 72 | 0.0 | 0.0 | 0.00 | 0.00 | 0.00 | 92 | 1010.0 | |
| 20260905074017 | 73 | 0.0 | 0.0 | 0.00 | 0.00 | 0.00 | 92 | 1010.0 | |
| 20260905073037 | 73 | 0.0 | 0.0 | 0.00 | 0.00 | 0.00 | 92 | 1010.1 | |
| 20260905072017 | 73 | 0.0 | 0.0 | 0.00 | 0.00 | 0.00 | 92 | 1010.2 | |
| 20260905071017 | 73 | 0.0 | 0.0 | 0.00 | 0.00 | 0.00 | 91 | 1010.2 | |
| 20260905070058 | 73 | 0.0 | 0.0 | 0.00 | 0.00 | 0.00 | 91 | 1010.0 | |
| 20260905065017 | 73 | 0.0 | 1.0 | 0.00 | 0.00 | 0.00 | 91 | 1010.1 | |
| 20260905064017 | 74 | 0.0 | 0.0 | 0.00 | 0.00 | 0.00 | 92 | 1010.2 | |
| 20260905063017 | 74 | 0.0 | 0.0 | 0.00 | 0.00 | 0.00 | 92 | 1010.3 | |
| 20260905062018 | 74 | 113 | 1.0 | 4.0 | 0.00 | 0.00 | 0.00 | 92 | 1010.4 |
| 20260905061017 | 74 | 0.0 | 0.0 | 0.00 | 0.00 | 0.00 | 93 | 1010.5 | |
| 20260905060017 | 74 | 293 | 1.0 | 2.0 | 0.00 | 0.00 | 0.00 | 93 | 1010.5 |
| 20260905055017 | 74 | 0.0 | 1.0 | 0.00 | 0.00 | 0.00 | 94 | 1010.7 | |
| 20260905054017 | 74 | 0.0 | 1.0 | 0.00 | 0.00 | 0.00 | 94 | 1010.7 |